Weather Roundup
Issued by NWS Springfield, MO

Home | Current Version | Previous Version | Text Only | Print | Product List | Glossary On
Versions: 1 2 3 4 5 6 7 8 9 10 11 12 13 14 15 16 17 18 19 20 21 22 23 24 25 26 27 28 29 30 31 32 33 34 35 36 37 38 39 40 41 42 43 44 45 46 47 48 49 50
000
NZUS99 KSGF 211507
HRRSGF

HOURLY WEATHER
NATIONAL WEATHER SERVICE SPRINGFIELD MO
900 AM CST TUE FEB 21 2017

......SGF CWA......

CITY           SKY/WX    TMP DP  RH WIND       PRES   REMARKS
SPRINGFIELD    PTSUNNY   58  56  93 N8        29.91S
JOPLIN         PTSUNNY   53  53 100 N3        29.95R
WEST PLAINS    CLOUDY    58  57  97 E8        29.90R FOG
ROLLA          CLOUDY    58  58 100 NE6       29.90R
OSAGE BEACH    CLOUDY    58  56  93 VRB3      29.93R
BRANSON        CLOUDY    55  55 100 NW8       29.91S

......SURROUNDING SGF CWA......

CITY           SKY/WX    TMP DP  RH WIND       PRES   REMARKS
CHANUTE        SUNNY     51  47  86 N8        29.98R
PARSONS        SUNNY     53  48  83 N8        29.98R
COFFEYVILLE    SUNNY     52  49  89 N7        29.97R
EMPORIA        SUNNY     48  43  82 NW6       30.01R
GROVE OK       FOG       52  52 100 CALM      29.96R VSB 1/2
ROGERS AR      CLOUDY    55  53  93 N7        29.93F
SILOAM SPRINGS CLOUDY    55  52  88 N9        29.94R
HARRISON AR    CLOUDY    56  55  97 NW6       29.90S
NEAR YELLVILLE CLOUDY    57  52  82 N7        29.86R

......KANSAS AND MISSOURI......

CITY           SKY/WX    TMP DP  RH WIND       PRES   REMARKS
KANSAS CTY INT SUNNY     51  45  79 N8        29.99R
DOWNTOWN KC    MOSUNNY   52  45  77 CALM      29.98R
COLUMBIA       CLOUDY    58  56  93 N10       29.93F
SEDALIA        PTSUNNY   57  53  86 N7        29.95S
ST JOSEPH      SUNNY     47  45  93 N5        30.01R
ST LOUIS       LGT RAIN  61  59  93 E8        29.93R FOG
SPIRIT OF STL  LGT RAIN  60  60 100 E6        29.91S FOG
KIRKSVILLE     MOSUNNY   53  45  74 NE9       29.97R
WICHITA        MOSUNNY   48  39  71 NW13      30.03R
TOPEKA         SUNNY     48  42  80 W3        30.01R
OLATHE         MOSUNNY   51  46  83 N10       29.98R

......TENNESSEE......

CITY           SKY/WX    TMP DP  RH WIND       PRES   REMARKS
MEMPHIS        CLOUDY    61  59  93 S12       29.88R
NASHVILLE      CLOUDY    63  48  58 SE8       29.99F

......ARKANSAS.......

CITY           SKY/WX    TMP DP  RH WIND       PRES   REMARKS
FAYETTEVILLE   CLOUDY    55  55 100 N8        29.92S FOG
FT SMITH       CLOUDY    58  55  90 W7        29.90S
LITTLE ROCK    RAIN      59  59 100 SW6       29.86S FOG

......OKLAHOMA.......

CITY           SKY/WX    TMP DP  RH WIND       PRES   REMARKS
TULSA          MOSUNNY   52  50  93 N9        29.95R
PONCA CITY     SUNNY     52  45  77 N8        30.01R
MCALESTER      FOG       51  50  96 N7        29.96R VSB 1/4
OKLAHOMA CITY  SUNNY     51  44  77 NW15      30.01R

......IOWA............

CITY           SKY/WX    TMP DP  RH WIND       PRES   REMARKS
DES MOINES     MOSUNNY   45  42  89 S6        29.98S
QUAD CITIES    CLOUDY    53  45  74 CALM      29.95S

......ILLINOIS........

CITY           SKY/WX    TMP DP  RH WIND       PRES   REMARKS
QUINCY         FOG       55  55 100 NE9       29.95S VSB 1/4
CHICAGO        CLOUDY    57  53  86 W6        29.94R FOG




USA.gov is the U.S. government's official web portal to all federal, state and local government web resources and services.